QIANFAN-15 (60393 NORAD) Tracking and Keplerian Element Data

This shows tracking and keplerian element data for the satellite.

Feedback or suggestion? Click here.




ElementValue
Catalog60393
NameQIANFAN-15
Epoch Orbit963
Epoch Day286.85000084
Epoch Year2024
RAAN343.4181
Inclination88.9942
Eccentricity0.0014353
Argument of Perigee19.1322
Mean Anonmoly341.0406
Mean Motion14.23644314
Decay Rate1.921E-05
L11 60393U 24140Q 24286.85000084 .00001921 00000+0 83590-3 0 9999
L22 60393 88.9942 343.4181 0014353 19.1322 341.0406 14.23644314 9639



Live tracking and technical data element details for QIANFAN-15 (NORAD 60393). QIANFAN-15 can be tracked NOW for your location showing map with azimuth and elevation plus other details from your city location.







IsCatalogInMostPopularTable: catalog: 60393, numindb: 6
Update: records affected: 1



GetName: 60393 QIANFAN-15

Hit Count: updated at: Wed, 04 Dec 2024 18:24:54 GMT